Regional Weather Roundup
Issued by NWS Green Bay, WI

Home | Current Version | Previous Version | Text Only | Print | Product List | Glossary On
Versions: 1 2 3 4 5 6 7 8 9 10 11 12 13 14 15 16 17 18 19 20 21 22 23 24 25 26 27 28 29 30 31 32 33 34 35 36 37 38 39 40 41 42 43 44 45 46 47 48 49 50
000
ASUS43 KGRB 110100
RWRGRB

NORTH-CENTRAL AND NORTHEAST WISCONSIN REGIONAL WEATHER ROUNDUP
NATIONAL WEATHER SERVICE GREEN BAY WI
700 PM CST WED FEB 10 2016

WIZ005-009-010>012-018-019-110200-
NORTH CENTRAL WISCONSIN

CITY           SKY/WX    TMP DP  RH WIND       PRES   REMARKS
IRONWOOD       CLOUDY     9   1  72 NW8       30.09R WCI  -4
MANITOWISH WTR NOT AVBL
ARBOR VITAE    NOT AVBL
EAGLE RIVER    NOT AVBL
LAND O LAKES   NOT AVBL
RHINELANDER    CLOUDY     6  -5  60 N6        30.06R WCI  -4
PHILLIPS       NOT AVBL
ANTIGO         NOT AVBL
TOMAHAWK       NOT AVBL
MERRILL        NOT AVBL
$$

WIZ013-073-110200-
NORTHEAST WISCONSIN

CITY           SKY/WX    TMP DP  RH WIND       PRES   REMARKS
IRON MOUNTAIN  CLOUDY     7  -5  57 NW12      30.06R WCI  -8
MARINETTE      CLEAR      9  -6  52 N8        30.10R WCI  -4
$$

WIZ017-030-035>037-045-110200-
CENTRAL WISCONSIN

CITY           SKY/WX    TMP DP  RH WIND       PRES   REMARKS
MEDFORD        NOT AVBL
WAUSAU         CLEAR      9  -3  58 N8        30.08R WCI  -3
MOSINEE        CLEAR      9  -4  56 NW5       30.09R WCI   0
MARSHFIELD     CLEAR      2  -8  63 NW6       30.08R WCI  -9
WISC RAPIDS    CLEAR      7  -5  57 W6        30.13R WCI  -3
STEVENS POINT  NOT AVBL
WAUPACA        PTCLDY    12  -5  46 NW6       30.11R WCI   3
SHAWANO        CLEAR     12  -4  48 N3        30.11R
CLINTONVILLE   NOT AVBL
WAUTOMA        NOT AVBL
$$

WIZ038-039-048-051-110200-
FOX VALLEY

CITY           SKY/WX    TMP DP  RH WIND       PRES   REMARKS
NWS GREEN BAY  CLEAR      7  -7  52 N5        30.10R WCI  -2
APPLETON       PTCLDY    10  -8  44 NW8       30.07R WCI  -1
OSHKOSH        PTCLDY     7  -5  57 W5        30.09R WCI  -2
FOND DU LAC    PTCLDY     7  -4  60 W6        30.09R WCI  -3
$$

WIZ022-050-052-110200-
EAST CENTRAL WISCONSIN

CITY           SKY/WX    TMP DP  RH WIND       PRES   REMARKS
EPHRAIM        FAIR       9  -4  56 NW15      30.07R WCI  -8
STURGEON BAY   CLEAR      9  -4  56 N12       30.10R WCI  -6
MANITOWOC      NOT AVBL
SHEBOYGAN      PTCLDY     7  -5  57 W6        30.09R WCI  -3
$$

LMZ563-521-522-541>543-110200-
LAKESHORE

STATION/POSITION TIME  TEMP    WIND        PRES    VSBY  WAVE
                       AIR SEA DIR/SP/G                  HT/PER
                 (UTC) (F)     (DEG/KT/KT) (MB)    (MI)  (FT/S)
SHEBOYGAN LKSHOR 0000   12     300/  7/  9 1020.5R
KEWAUNEE LKSHORE 0000   12                 1017.6R
ALGOMA MARINA    0011          340/  5/  7   N/A
CHAMBERS ISLAND  0000   10     300/ 13/ 21 1018.6R
MENOMINEE LKSHOR 0000   11                 1017.8R
$$



USA.gov is the U.S. government's official web portal to all federal, state and local government web resources and services.